Airport Information

KPDT - Eastern Oregon Regional Airport

KPDT 251053Z AUTO 09009KT 10SM CLR 04/00 A3010 RMK AO2 SLP191 T00390000


  • General Information

  • Coordinates: N 45°41'42"/ W 118°50'29"
  • Location: N/A
  • Surveyed Elevation: 1497 MSL

Operations

Flow Name Active Runways Conditions

Green background denotes normal operations.


Common Frequencies

Callsign Frequency Position Name

More at the Document Center


Charts